• Join FlightAware (Why Join?)
  • Login
  • US Flag 
02:37PM EDT


 

Airport Tracker/Info


-or-


 

Live Flight TrackerFlight Track Log ✈ UPS1269 ✈ 02-Jul-2013 ✈ KGSO - KSDF

Flight Track Log - Related Links

Times and Time Zones

All times are in EDT time to prevent confusion due to time zone crossing. See the UPS1269 flight status page for this flight to view local times or setup timezone preferences in your user account.

Time Position Orientation Groundspeed Altitude Reporting Facility
EDT Latitude Longitude Course Direction KTS MPH feet Rate Location/Type
11:40PM 36.2430 -80.2310 308° West 343 395 11,300  Level FlightAware
11:41PM 36.2710 -80.2760 308° West 343 395 11,300 2,460 Level FlightAware
11:46PM 36.5420 -81.0650 293° West 480 552 26,200 2,700 Climbing FlightAware
11:47PM 36.5730 -81.1650 291° West 475 547 27,900 2,580 Climbing FlightAware
11:48PM 36.6050 -81.2680 291° West 465 535 29,700 2,400 Climbing FlightAware
11:48PM 36.6351 -81.3679 291° West 462 532 31,000 1,920 Climbing FlightAware ADS-B
11:49PM 36.6588 -81.4473 290° West 460 529 31,900 900 Climbing FlightAware ADS-B
11:49PM 36.6838 -81.5299 291° West 463 533 32,000 60 Climbing FlightAware ADS-B
11:50PM 36.7066 -81.6043 291° West 458 527 32,000  Level FlightAware ADS-B
11:51PM 36.7346 -81.6977 291° West 456 525 32,000  Level FlightAware ADS-B
11:51PM 36.7649 -81.7992 290° West 458 527 32,000  Level FlightAware ADS-B
11:52PM 36.8009 -81.9210 290° West 461 531 32,000  Level FlightAware ADS-B
11:53PM 36.8239 -81.9980 290° West 460 529 32,000  Level FlightAware ADS-B
11:53PM 36.8467 -82.0752 290° West 459 528 32,000  Level FlightAware ADS-B
11:54PM 36.8692 -82.1496 291° West 457 526 32,000  Level FlightAware ADS-B
11:54PM 36.8920 -82.2280 290° West 455 524 32,000  Level FlightAware
11:55PM 36.9075 -82.2802 290° West 455 524 32,000  Level FlightAware ADS-B
11:55PM 36.9308 -82.3592 290° West 454 522 32,000  Level FlightAware ADS-B
11:56PM 36.9528 -82.4355 290° West 455 524 32,000  Level FlightAware ADS-B
11:56PM 36.9757 -82.5146 290° West 455 524 32,000  Level FlightAware ADS-B
11:57PM 36.9976 -82.5886 290° West 454 522 32,000  Level FlightAware ADS-B
11:57PM 37.0194 -82.6652 290° West 455 524 32,000  Level FlightAware ADS-B
11:58PM 37.0413 -82.7393 290° West 454 522 32,000  Level FlightAware ADS-B
11:58PM 37.0631 -82.8156 290° West 454 522 32,000  Level FlightAware ADS-B
11:59PM 37.0850 -82.8920 290° West 451 519 32,000  Level FlightAware ADS-B
11:59PM 37.1069 -82.9681 290° West 451 519 32,000  Level FlightAware ADS-B
12:00AM 37.1282 -83.0420 290° West 452 520 32,000  Level FlightAware ADS-B
12:00AM 37.1496 -83.1187 289° West 453 521 32,000  Level FlightAware ADS-B
12:01AM 37.1707 -83.1928 290° West 454 522 32,000  Level FlightAware ADS-B
12:01AM 37.1931 -83.2721 290° West 453 521 32,000  Level FlightAware ADS-B
12:02AM 37.2153 -83.3488 290° West 454 522 32,000  Level FlightAware ADS-B
12:02AM 37.2443 -83.4532 289° West 454 522 32,000 -360 Level FlightAware ADS-B
12:03AM 37.2801 -83.5801 290° West 454 522 31,500 -780 Descending FlightAware ADS-B
12:04AM 37.3015 -83.6573 289° West 454 522 31,000 -1,140 Descending FlightAware ADS-B
12:04AM 37.3225 -83.7312 290° West 449 517 30,400 -1,080 Descending FlightAware ADS-B
12:05AM 37.3440 -83.8105 289° West 458 527 29,900 -1,020 Descending FlightAware ADS-B
12:05AM 37.3660 -83.8895 289° West 468 539 29,400 -1,080 Descending FlightAware ADS-B
12:06AM 37.3952 -83.9936 289° West 465 535 28,600 -1,260 Descending FlightAware ADS-B
12:07AM 37.4162 -84.0691 289° West 437 503 27,900 -1,800 Descending FlightAware ADS-B
12:07AM 37.4363 -84.1425 289° West 428 493 26,800 -2,340 Descending FlightAware ADS-B
12:08AM 37.4589 -84.2262 289° West 422 486 25,300 -3,060 Descending FlightAware ADS-B
12:08AM 37.4793 -84.3009 289° West 406 467 23,300 -3,720 Descending FlightAware ADS-B
12:09AM 37.4979 -84.3690 289° West 395 455 21,400 -3,720 Descending FlightAware ADS-B
12:09AM 37.5207 -84.4531 289° West 392 451 19,000 -1,800 Descending FlightAware ADS-B
12:15AM 37.7280 -85.0520 294° West 9,700 -1,620 Descending FlightAware
12:16AM 37.7480 -85.0810 311° West 305 351 9,100 -1,440 Descending FlightAware
12:16AM 37.7780 -85.1250 311° West 292 336 8,400 -1,440 Descending FlightAware
12:17AM 37.7940 -85.1620 299° West 282 325 7,700 -1,440 Descending FlightAware
12:17AM 37.8070 -85.1990 294° West 282 325 7,100 -1,800 Descending FlightAware
12:17AM 37.8180 -85.2290 295° West 281 323 6,500 -1,800 Descending FlightAware
12:18AM 37.8310 -85.2640 295° West 279 321 5,900 -1,440 Descending FlightAware
12:18AM 37.8530 -85.3220 296° West 274 315 5,000 -1,440 Descending FlightAware
12:19AM 37.8640 -85.3540 294° West 272 313 4,400 -1,560 Descending FlightAware
12:19AM 37.8810 -85.4010 295° West 268 308 3,600 -1,500 Descending FlightAware
12:20AM 37.8960 -85.4430 294° West 263 303 3,000 -900 Descending FlightAware
12:20AM 37.9020 -85.4590 295° West 256 295 3,000 -180 Level FlightAware
12:20AM 37.9140 -85.4900 296° West 248 285 2,900 -120 Descending FlightAware
12:21AM 37.9290 -85.5330 294° West 247 284 2,900  Level FlightAware
12:21AM 37.9420 -85.5700 294° West 246 283 2,900  Level FlightAware
12:22AM 37.9540 -85.6030 295° West 224 258 2,900  Level FlightAware
12:22AM 37.9660 -85.6370 294° West 205 236 2,900  Level FlightAware
12:23AM 37.9840 -85.6640 310° West 211 243 2,900  Level FlightAware
12:23AM 38.0030 -85.6690 348° North 206 237 2,900  Level FlightAware
12:24AM 38.0290 -85.6770 346° North 201 231 2,900 -360 Level FlightAware
12:24AM 38.0540 -85.6860 344° North 201 231 2,600 -900 Descending FlightAware
12:25AM 38.0780 -85.6940 345° North 184 212 2,100 -900 Descending FlightAware
12:25AM 38.0950 -85.7000 344° North 158 182 1,800 -840 Descending FlightAware
12:25AM 38.1100 -85.7050 345° North 142 163 1,500 -840 Descending FlightAware
12:26AM 38.1310 -85.7120 345° North 140 161 1,100 -780 Descending FlightAware
12:26AM 38.1480 -85.7180 344° North 140 161 800 -720 Descending FlightAware
12:27AM 38.1650 -85.7240 344° North 133 153 500 -660 Descending FlightAware
12:27AM 38.1800 -85.7290 345° North 72 83 -1,020 Descending FlightAware
12:28AM 38.1870 -85.7310 347° North 72 83  Level FlightAware
12:29AM 38.1810 -85.7330 195° South 20 23  Level FlightAware
12:31AM 38.1780 -85.7370 226° Southwest 18 21  Level FlightAware
12:31AM 38.1790 -85.7410 288° West 20 23  Level FlightAware
12:32AM 38.1790 -85.7440 270° West 27 31  Level FlightAware